Weather History for KEYF - December, 2012

Change the Weather History Date:

Saturday, December 22, 2012

  Actual Average (KILM) Record (KILM)
Temperature  
Mean Temperature 41 °F 47 °F  
Max Temperature 50 °F 58 °F 80 °F (1998)
Min Temperature 32 °F 37 °F 16 °F (1901)
Degree Days  
Heating Degree Days 24 18  
Month to date heating degree days 345  
Since 1 July heating degree days 714  
Cooling Degree Days 0 0  
Month to date cooling degree days 0  
Year to date cooling degree days 2037  
Moisture  
Dew Point 23 °F    
Average Humidity 55    
Maximum Humidity 80    
Minimum Humidity 32    
Precipitation  
Precipitation 0.00 in 0.12 in 1.64 in (1920)
Month to date precipitation 2.58  
Year to date precipitation 56.57  
Snow  
Snow 0.00 in 0.00 in 1.00 in (1989)
Month to date snowfall 0.5  
Since 1 July snowfall 0.5  
Snow Depth -    
Sea Level Pressure  
Sea Level Pressure 30.04 in    
Wind  
Wind Speed 6 mph (West)    
Max Wind Speed 16 mph    
Max Gust Speed 23 mph    
Visibility 10 miles    
Events      
T = Trace of Precipitation, MM = Missing Value Source: NWS Daily Summary

Daily Weather History Graph

Daily Weather History Graph

Search for Another Location

Airport or City:

Trip Planner

Search our weather history database for the weather conditions in past years. The results will help you decide how hot, cold, wet, or windy it might be!

Date:

Astronomy

Dec. 22, 2012 Rise Set
Actual Time 7:18 AM EST 5:08 PM EST
Civil Twilight 6:50 AM EST 5:36 PM EST
Nautical Twilight 6:18 AM EST 6:07 PM EST
Astronomical Twilight 5:47 AM EST 6:38 PM EST
Moon 1:18 PM EST (12/22) 2:09 AM EST (12/22)
Length of Visible Light 10h 46m
Length of Day
9h 50m
Waxing Gibbous, 73% of the Moon is Illuminated
Dec 22
Waxing Gibbous
Dec 28
Full
Jan 4
Last Quarter
Jan 11
New
Jan 18
First Quarter

Hourly Weather History & Observations

Time (EST) Temp. Windchill Dew Point Humidity Pressure Visibility Wind Dir Wind Speed Gust Speed Precip Events Conditions
12:15 AM 35.8 °F 30.9 °F 25.3 °F 66% 29.86 in 10.0 mi WSW 5.8 mph - N/A   Clear
12:35 AM 35.6 °F 31.7 °F 25.2 °F 66% 29.86 in 10.0 mi WSW 4.6 mph - N/A   Clear
12:55 AM 35.6 °F 31.7 °F 25.3 °F 66% 29.87 in 10.0 mi West 4.6 mph - N/A   Clear
1:15 AM 35.4 °F 31.5 °F 25.2 °F 66% 29.88 in 10.0 mi WSW 4.6 mph - N/A   Clear
1:35 AM 35.1 °F 31.0 °F 25.5 °F 68% 29.89 in 10.0 mi West 4.6 mph - N/A   Clear
1:55 AM 35.1 °F 31.0 °F 25.3 °F 68% 29.90 in 10.0 mi West 4.6 mph - N/A   Clear
2:15 AM 35.1 °F 31.0 °F 25.3 °F 68% 29.90 in 10.0 mi West 4.6 mph - N/A   Clear
2:35 AM 35.6 °F 31.7 °F 24.8 °F 65% 29.91 in 10.0 mi West 4.6 mph - N/A   Clear
2:55 AM 35.2 °F 31.2 °F 24.8 °F 66% 29.91 in 10.0 mi West 4.6 mph - N/A   Clear
3:15 AM 34.7 °F 29.6 °F 24.8 °F 67% 29.92 in 10.0 mi West 5.8 mph - N/A   Clear
3:35 AM 34.7 °F 30.6 °F 24.8 °F 67% 29.92 in 10.0 mi West 4.6 mph - N/A   Clear
3:55 AM 34.7 °F 30.6 °F 24.6 °F 67% 29.92 in 10.0 mi West 4.6 mph - N/A   Clear
4:15 AM 34.9 °F 29.9 °F 24.4 °F 66% 29.93 in 10.0 mi West 5.8 mph - N/A   Clear
4:35 AM 35.1 °F 30.1 °F 24.3 °F 65% 29.93 in 10.0 mi West 5.8 mph - N/A   Clear
4:55 AM 34.7 °F 29.6 °F 24.1 °F 65% 29.95 in 10.0 mi West 5.8 mph - N/A   Clear
5:15 AM 34.7 °F 29.6 °F 24.3 °F 66% 29.95 in 10.0 mi West 5.8 mph - N/A   Clear
5:35 AM 34.7 °F 28.8 °F 24.4 °F 66% 29.96 in 10.0 mi West 6.9 mph - N/A   Clear
5:55 AM 34.7 °F 29.6 °F 24.4 °F 66% 29.98 in 10.0 mi West 5.8 mph - N/A   Clear
6:15 AM 33.8 °F 27.7 °F 24.1 °F 68% 29.99 in 10.0 mi West 6.9 mph - N/A   Clear
6:35 AM 33.8 °F 28.6 °F 23.9 °F 67% 30.00 in 10.0 mi West 5.8 mph - N/A   Clear
6:55 AM 33.3 °F 28.9 °F 23.9 °F 69% 30.01 in 10.0 mi West 4.6 mph - N/A   Clear
7:15 AM 33.3 °F 27.1 °F 23.9 °F 69% 30.02 in 10.0 mi West 6.9 mph - N/A   Clear
7:35 AM 33.3 °F 27.1 °F 23.9 °F 69% 30.03 in 10.0 mi West 6.9 mph - N/A   Clear
7:55 AM 33.6 °F 27.5 °F 23.9 °F 68% 30.04 in 10.0 mi West 6.9 mph - N/A   Clear
8:15 AM 34.7 °F 28.8 °F 23.9 °F 65% 30.06 in 10.0 mi West 6.9 mph - N/A   Clear
8:35 AM 36.0 °F 29.0 °F 23.7 °F 61% 30.07 in 10.0 mi West 9.2 mph - N/A   Clear
8:55 AM 37.6 °F 30.0 °F 23.5 °F 57% 30.08 in 10.0 mi WNW 11.5 mph 18.4 mph N/A   Clear
9:15 AM 38.8 °F 31.2 °F 22.8 °F 53% 30.08 in 10.0 mi WNW 12.7 mph 16.1 mph N/A   Clear
9:35 AM 39.6 °F 31.3 °F 21.9 °F 49% 30.09 in 10.0 mi WNW 15.0 mph 21.9 mph N/A   Clear
9:55 AM 40.3 °F 32.2 °F 21.7 °F 48% 30.10 in 10.0 mi West 15.0 mph 23.0 mph N/A   Clear
10:15 AM 40.8 °F 33.7 °F 21.0 °F 45% 30.10 in 10.0 mi West 12.7 mph 20.7 mph N/A   Clear
10:35 AM 41.5 °F 33.8 °F 21.0 °F 44% 30.10 in 10.0 mi West 15.0 mph 21.9 mph N/A   Clear
10:55 AM 41.9 °F 34.0 °F 20.8 °F 43% 30.09 in 10.0 mi WNW 16.1 mph 21.9 mph N/A   Clear
11:15 AM 42.4 °F 35.0 °F 20.5 °F 42% 30.10 in 10.0 mi WNW 15.0 mph 23.0 mph N/A   Clear
11:35 AM 43.3 °F 38.1 °F 21.0 °F 41% 30.09 in 10.0 mi West 9.2 mph 19.6 mph N/A   Clear
11:55 AM 43.5 °F 36.7 °F 20.7 °F 40% 30.08 in 10.0 mi West 13.8 mph 18.4 mph N/A   Clear
12:15 PM 44.1 °F 38.6 °F 20.3 °F 39% 30.07 in 10.0 mi WNW 10.4 mph 18.4 mph N/A   Clear
12:35 PM 44.8 °F 39.4 °F 20.8 °F 39% 30.06 in 10.0 mi WNW 10.4 mph - N/A   Clear
12:55 PM 45.3 °F 39.7 °F 20.7 °F 38% 30.06 in 10.0 mi West 11.5 mph 17.3 mph N/A   Clear
1:15 PM 45.9 °F 40.8 °F 21.0 °F 37% 30.06 in 10.0 mi WSW 10.4 mph - N/A   Clear
1:35 PM 47.3 °F - 20.7 °F 35% 30.05 in 10.0 mi West 10.4 mph 17.3 mph N/A   Clear
1:55 PM 47.3 °F - 20.5 °F 35% 30.05 in 10.0 mi West 9.2 mph - N/A   Clear
2:15 PM 48.4 °F - 20.8 °F 34% 30.04 in 10.0 mi WNW 8.1 mph 19.6 mph N/A   Clear
2:35 PM 48.6 °F - 19.9 °F 32% 30.04 in 10.0 mi WNW 10.4 mph 18.4 mph N/A   Clear
2:55 PM 49.3 °F - 20.8 °F 33% 30.04 in 10.0 mi West 9.2 mph - N/A   Clear
3:15 PM 49.3 °F - 20.8 °F 33% 30.05 in 10.0 mi West 8.1 mph 16.1 mph N/A   Clear
3:35 PM 50.0 °F - 21.2 °F 32% 30.05 in 10.0 mi West 6.9 mph - N/A   Clear
3:55 PM 49.8 °F - 21.6 °F 33% 30.06 in 10.0 mi West 6.9 mph - N/A   Clear
4:15 PM 49.3 °F - 21.4 °F 33% 30.06 in 10.0 mi West 10.4 mph - N/A   Clear
4:35 PM 48.7 °F - 22.1 °F 35% 30.06 in 10.0 mi WSW 9.2 mph - N/A   Clear
4:55 PM 47.3 °F - 23.2 °F 39% 30.07 in 10.0 mi WSW 4.6 mph - N/A   Clear
5:15 PM 46.8 °F - 22.8 °F 39% 30.08 in 10.0 mi West 4.6 mph - N/A   Clear
5:35 PM 44.4 °F - 23.5 °F 44% 30.08 in 10.0 mi Calm Calm - N/A   Clear
5:55 PM 43.0 °F - 24.3 °F 48% 30.08 in 10.0 mi Calm Calm - N/A   Clear
6:15 PM 41.5 °F - 25.2 °F 52% 30.09 in 10.0 mi Calm Calm - N/A   Clear
6:35 PM 40.3 °F - 25.3 °F 55% 30.10 in 10.0 mi Calm Calm - N/A   Clear
6:55 PM 39.6 °F 37.4 °F 25.7 °F 58% 30.10 in 10.0 mi SW 3.5 mph - N/A   Clear
7:15 PM 39.7 °F - 24.6 °F 55% 30.10 in 10.0 mi Calm Calm - N/A   Clear
7:35 PM 37.6 °F - 25.9 °F 63% 30.10 in 10.0 mi Calm Calm - N/A   Clear
7:55 PM 35.6 °F 32.8 °F 26.2 °F 69% 30.11 in 10.0 mi SSE 3.5 mph - N/A   Clear
8:15 PM 34.0 °F - 27.0 °F 75% 30.11 in 10.0 mi Calm Calm - N/A   Clear
8:35 PM 34.5 °F - 26.6 °F 73% 30.11 in 10.0 mi Calm Calm - N/A   Clear
8:55 PM 33.6 °F - 26.4 °F 75% 30.11 in 10.0 mi Calm Calm - N/A   Clear
9:15 PM 32.0 °F - 26.4 °F 80% 30.11 in 10.0 mi Calm Calm - N/A   Clear
9:35 PM 32.7 °F 28.3 °F 26.1 °F 76% 30.11 in 10.0 mi SSW 4.6 mph - N/A   Clear
9:55 PM 34.0 °F 28.8 °F 25.3 °F 71% 30.11 in 10.0 mi SW 5.8 mph - N/A   Clear
10:15 PM 38.3 °F 33.9 °F 23.9 °F 56% 30.12 in 10.0 mi SW 5.8 mph - N/A   Clear
10:35 PM 39.9 °F 35.8 °F 23.2 °F 51% 30.12 in 10.0 mi SW 5.8 mph - N/A   Clear
10:55 PM 38.7 °F 34.3 °F 23.2 °F 54% 30.12 in 10.0 mi SW 5.8 mph - N/A   Clear
11:15 PM 38.3 °F 33.9 °F 23.2 °F 55% 30.11 in 10.0 mi SW 5.8 mph - N/A   Clear
11:35 PM 37.6 °F 34.0 °F 23.2 °F 56% 30.11 in 10.0 mi SW 4.6 mph - N/A   Clear
11:55 PM 38.3 °F 35.9 °F 22.5 °F 53% 30.10 in 10.0 mi WSW 3.5 mph - N/A   Clear